When you browse on this site, cookies collect data to enhance your experience and personalize the content and advertising you see.
Visit our Privacy Policy to learn more. By continuing to use the site, you agree to this use of cookies and data.
  • In Latvia
  • List of Countries
  • For 7 days
  • Water Temperature
  • Satellite Maps
  • Weather Map
  • Weather Widgets
  • user-avatar
    Login

    Hourly Weather Darwin

    Today, 25 June, Tuesday

    Time Temperature Precipitation Wind Pressure Humidity
    00:00 +16°C° 0 mm 5 mps 762 mmHg 23%
    01:00 +15°C° 0 mm 5 mps 762 mmHg 24%
    02:00 +14°C° 0 mm 5 mps 762 mmHg 25%
    03:00 +14°C° 0 mm 5 mps 761 mmHg 26%
    04:00 +13°C° 0 mm 5 mps 762 mmHg 28%
    05:00 +13°C° 0 mm 5 mps 762 mmHg 30%
    06:00 +12°C° 0 mm 5 mps 763 mmHg 32%
    07:00 +15°C° 0 mm 6 mps 763 mmHg 31%
    08:00 +17°C° 0 mm 6 mps 763 mmHg 30%
    09:00 +21°C° 0 mm 6 mps 763 mmHg 27%
    10:00 +25°C° 0 mm 5 mps 763 mmHg 25%
    11:00 +27°C° 0 mm 5 mps 762 mmHg 23%
    12:00 +30°C° 0 mm 4 mps 762 mmHg 21%
    13:00 +32°C° 0 mm 4 mps 761 mmHg 20%
    14:00 +33°C° 0 mm 3 mps 760 mmHg 19%
    15:00 +34°C° 0 mm 3 mps 760 mmHg 18%
    16:00 +30°C° 0 mm 2 mps 760 mmHg 27%
    17:00 +27°C° 0 mm 2 mps 760 mmHg 36%
    18:00 +24°C° 0 mm 2 mps 761 mmHg 44%
    19:00 +23°C° 0 mm 2 mps 761 mmHg 49%
    20:00 +20°C° 0 mm 2 mps 761 mmHg 53%
    21:00 +19°C° 0 mm 2 mps 761 mmHg 58%
    22:00 +18°C° 0 mm 3 mps 761 mmHg 49%
    23:00 +18°C° 0 mm 3 mps 762 mmHg 39%

    Tomorrow, 26 June, Wednesday

    Time Temperature Precipitation Wind Pressure Humidity
    00:00 +17°C° 0 mm 4 mps 762 mmHg 30%
    01:00 +15°C° 0 mm 4 mps 762 mmHg 30%
    02:00 +15°C° 0 mm 4 mps 762 mmHg 29%
    03:00 +14°C° 0 mm 5 mps 762 mmHg 29%
    04:00 +14°C° 0 mm 5 mps 762 mmHg 29%
    05:00 +13°C° 0 mm 5 mps 762 mmHg 29%
    06:00 +13°C° 0 mm 5 mps 762 mmHg 30%
    07:00 +15°C° 0 mm 5 mps 762 mmHg 27%
    08:00 +17°C° 0 mm 6 mps 762 mmHg 25%
    09:00 +20°C° 0 mm 6 mps 762 mmHg 23%
    10:00 +23°C° 0 mm 5 mps 762 mmHg 22%
    11:00 +27°C° 0 mm 5 mps 761 mmHg 21%
    12:00 +30°C° 0 mm 4 mps 761 mmHg 20%
    13:00 +31°C° 0 mm 3 mps 760 mmHg 19%
    14:00 +33°C° 0 mm 3 mps 759 mmHg 19%
    15:00 +32°C° 0 mm 2 mps 759 mmHg 18%
    16:00 +29°C° 0 mm 2 mps 759 mmHg 27%
    17:00 +26°C° 0 mm 2 mps 759 mmHg 36%
    18:00 +23°C° 0 mm 2 mps 759 mmHg 45%
    19:00 +22°C° 0 mm 1 mps 759 mmHg 49%
    20:00 +21°C° 0 mm 1 mps 760 mmHg 52%
    21:00 +20°C° 0 mm 1 mps 760 mmHg 55%
    22:00 +19°C° 0 mm 1 mps 760 mmHg 53%
    23:00 +18°C° 0 mm 2 mps 760 mmHg 51%

    Day after tomorrow, 27 June, Thursday

    Time Temperature Precipitation Wind Pressure Humidity
    00:00 +17°C° 0 mm 2 mps 760 mmHg 49%
    01:00 +17°C° 0 mm 3 mps 760 mmHg 49%
    02:00 +17°C° 0 mm 4 mps 760 mmHg 49%
    03:00 +17°C° 0 mm 4 mps 760 mmHg 49%
    04:00 +15°C° 0 mm 4 mps 760 mmHg 53%
    05:00 +14°C° 0 mm 4 mps 760 mmHg 58%
    06:00 +14°C° 0 mm 4 mps 760 mmHg 62%
    07:00 +17°C° 0 mm 4 mps 761 mmHg 57%
    08:00 +19°C° 0 mm 4 mps 761 mmHg 53%
    09:00 +21°C° 0 mm 4 mps 761 mmHg 48%
    10:00 +25°C° 0 mm 4 mps 761 mmHg 42%
    11:00 +28°C° 0 mm 3 mps 760 mmHg 36%
    12:00 +30°C° 0 mm 3 mps 760 mmHg 29%
    13:00 +31°C° 0 mm 3 mps 759 mmHg 28%
    14:00 +33°C° 0 mm 3 mps 759 mmHg 26%
    15:00 +34°C° 0 mm 4 mps 758 mmHg 25%
    16:00 +30°C° 0 mm 3 mps 758 mmHg 36%
    17:00 +27°C° 0 mm 3 mps 758 mmHg 47%
    18:00 +24°C° 0 mm 3 mps 758 mmHg 58%
    19:00 +22°C° 0 mm 3 mps 759 mmHg 60%
    20:00 +21°C° 0 mm 2 mps 759 mmHg 62%
    21:00 +20°C° 0 mm 2 mps 760 mmHg 64%
    22:00 +20°C° 0 mm 2 mps 760 mmHg 67%
    23:00 +19°C° 0 mm 2 mps 760 mmHg 71%

    28 June, Friday

    Time Temperature Precipitation Wind Pressure Humidity
    00:00 +19°C° 0 mm 2 mps 760 mmHg 74%
    01:00 +19°C° 0 mm 2 mps 760 mmHg 74%
    02:00 +19°C° 0 mm 2 mps 760 mmHg 74%
    03:00 +18°C° 0 mm 2 mps 760 mmHg 74%
    04:00 +18°C° 0 mm 2 mps 760 mmHg 72%
    05:00 +18°C° 0 mm 2 mps 760 mmHg 69%
    06:00 +18°C° 0 mm 3 mps 760 mmHg 67%
    07:00 +20°C° 0 mm 3 mps 761 mmHg 64%
    08:00 +22°C° 0 mm 3 mps 761 mmHg 62%
    09:00 +26°C° 0 mm 3 mps 761 mmHg 59%
    10:00 +28°C° 0 mm 3 mps 761 mmHg 51%
    11:00 +30°C° 0 mm 3 mps 760 mmHg 43%
    12:00 +32°C° 0 mm 2 mps 760 mmHg 36%
    13:00 +34°C° 0 mm 3 mps 759 mmHg 35%
    14:00 +34°C° 0 mm 3 mps 759 mmHg 34%
    15:00 +34°C° 0 mm 4 mps 758 mmHg 33%
    16:00 +31°C° 0 mm 3 mps 758 mmHg 43%
    17:00 +28°C° 0 mm 3 mps 758 mmHg 53%
    18:00 +26°C° 0 mm 2 mps 758 mmHg 64%
    19:00 +25°C° 0 mm 2 mps 759 mmHg 69%
    20:00 +24°C° 0 mm 2 mps 760 mmHg 74%
    21:00 +23°C° 0 mm 2 mps 760 mmHg 79%
    22:00 +21°C° 0 mm 3 mps 760 mmHg 81%
    23:00 +21°C° 0 mm 3 mps 760 mmHg 83%

    29 June, Saturday

    Time Temperature Precipitation Wind Pressure Humidity
    00:00 +20°C° 0 mm 3 mps 760 mmHg 85%
    01:00 +20°C° 0 mm 3 mps 760 mmHg 84%
    02:00 +20°C° 0 mm 2 mps 760 mmHg 83%
    03:00 +20°C° 0 mm 2 mps 760 mmHg 81%
    04:00 +20°C° 0 mm 2 mps 760 mmHg 81%
    05:00 +19°C° 0 mm 3 mps 760 mmHg 80%
    06:00 +19°C° 0 mm 3 mps 760 mmHg 79%
    07:00 +22°C° 0 mm 4 mps 760 mmHg 70%
    08:00 +25°C° 0 mm 4 mps 761 mmHg 61%
    09:00 +27°C° 0 mm 5 mps 761 mmHg 52%
    10:00 +29°C° 0 mm 4 mps 760 mmHg 46%
    11:00 +32°C° 0 mm 4 mps 760 mmHg 40%
    12:00 +34°C° 0 mm 4 mps 759 mmHg 34%
    13:00 +34°C° 0 mm 4 mps 759 mmHg 32%
    14:00 +35°C° 0 mm 3 mps 758 mmHg 31%
    15:00 +35°C° 0 mm 3 mps 757 mmHg 30%
    16:00 +32°C° 0 mm 2 mps 757 mmHg 38%
    17:00 +30°C° 0 mm 2 mps 758 mmHg 46%
    18:00 +27°C° 0 mm 2 mps 758 mmHg 55%
    19:00 +26°C° 0 mm 2 mps 758 mmHg 60%
    20:00 +25°C° 0 mm 2 mps 759 mmHg 64%
    21:00 +24°C° 0 mm 2 mps 760 mmHg 69%
    22:00 +24°C° 0 mm 2 mps 760 mmHg 68%
    23:00 +24°C° 0 mm 2 mps 760 mmHg 66%

    30 June, Sunday

    Time Temperature Precipitation Wind Pressure Humidity
    00:00 +23°C° 0 mm 2 mps 760 mmHg 65%
    01:00 +23°C° 0 mm 2 mps 759 mmHg 65%
    02:00 +23°C° 0 mm 2 mps 759 mmHg 64%
    03:00 +21°C° 0 mm 3 mps 759 mmHg 64%
    04:00 +21°C° 0 mm 3 mps 759 mmHg 67%
    05:00 +20°C° 0 mm 3 mps 759 mmHg 70%
    06:00 +20°C° 0 mm 4 mps 759 mmHg 73%
    07:00 +22°C° 0 mm 4 mps 760 mmHg 67%
    08:00 +25°C° 0 mm 5 mps 760 mmHg 61%
    09:00 +27°C° 0 mm 5 mps 760 mmHg 55%
    10:00 +29°C° 0 mm 5 mps 760 mmHg 48%
    11:00 +32°C° 0 mm 4 mps 759 mmHg 41%
    12:00 +34°C° 0 mm 4 mps 759 mmHg 35%
    13:00 +35°C° 0 mm 4 mps 758 mmHg 34%
    14:00 +36°C° 0 mm 3 mps 758 mmHg 33%
    15:00 +36°C° 0 mm 3 mps 757 mmHg 32%
    16:00 +34°C° 0 mm 3 mps 757 mmHg 38%
    17:00 +31°C° 0 mm 2 mps 757 mmHg 45%
    18:00 +29°C° 0 mm 2 mps 757 mmHg 51%
    19:00 +27°C° 0 mm 2 mps 758 mmHg 56%
    20:00 +26°C° 0 mm 2 mps 759 mmHg 60%
    21:00 +25°C° 0 mm 2 mps 759 mmHg 65%
    22:00 +24°C° 0 mm 2 mps 759 mmHg 61%
    23:00 +24°C° 0 mm 3 mps 759 mmHg 58%
    Show more